Location: Piotrkow Trybunalski
(51.4000°N, 19.6830°E)
Time: 15:01:33
(UTC+01:00)

Vanguard 2 - Pass Details

Date: 08 February 2023
Orbit: 553 x 2927 km, 32.9° (Epoch: 24 March)

Event Time Altitude Azimuth Distance (km) Brightness Sun altitude
Rises 21:08:25 0° 235° (SW) 4,983 11.9 -40.6°
Reaches altitude 10° 21:11:42 10° 226° (SW) 4,303 11.4 -41.0°
Enters shadow 21:17:01 27° 204° (SSW) 3,570 10.7 -41.7°
Maximum altitude 21:22:29 35° 167° (SSE) 3,503 - -42.4°
Drops below altitude 10° 21:36:47 10° 112° (ESE) 5,715 - -44.1°
Sets 21:41:58 0° 104° (ESE) 6,782 - -44.8°
